Date String (YYYY-MM-DD hh:mm:ss) UTC,Instrument flags,absolute air pressure of the measurement (hPa),sample flow rate (lpm),inlet stack bypass flow (lpm),air temperature of the measurement (°C),ambient temperature measured by the external sensor (°C),aerosol sample conditioner tube jacket temperature (°C),OPC LED temperature (°C),internal box temperature (°C),relative humidity of the measurement (%),span deviation,mass concentration of particles derived from Lorenz-Mie calculation of OPC scattering (μg/m³),mass concentration of particles derived from Lorenz-Mie calculation of OPC scattering (μg/m³),mass concentration of particles derived from Lorenz-Mie calculation of OPC scattering (μg/m³)
DateTimeUTC,F1_M11,P_M11,Q1_M11,Q2_M11,T1_M11,T2_M11,T3_M11,T4_M11,T5_M11,U1_M11,ZSPAN_M11,X2_M11,X0_M11,X1_M11
2024-02-04 15:00:00,SystemResetWarning,0826.3,5.00,000.00,018.8,018.6,000.0,027.0,020.5,15.8,0000.0,0000.64,0003.25,0000.55
2024-02-04 15:01:00,SystemResetWarning,0826.3,5.00,000.00,018.8,018.5,000.0,027.0,020.5,15.9,0000.0,0000.63,0003.23,0000.55
2024-02-04 15:02:00,SystemResetWarning,0826.4,5.00,000.00,018.8,018.4,000.0,027.0,020.4,15.8,0000.0,0000.62,0003.23,0000.54
2024-02-04 15:03:00,SystemResetWarning,0826.4,5.00,000.00,018.8,018.3,000.0,027.0,020.4,15.7,0000.0,0000.59,0002.10,0000.52
2024-02-04 15:04:00,SystemResetWarning,0826.4,5.00,000.00,018.7,018.3,000.0,027.0,020.3,15.8,0000.0,0000.56,0001.89,0000.51
2024-02-04 15:05:00,SystemResetWarning,0826.4,5.00,000.00,018.7,018.2,000.0,027.0,020.3,15.8,0000.0,0000.53,0000.83,0000.49
2024-02-04 15:06:00,SystemResetWarning,0826.4,5.00,000.00,018.7,018.2,000.0,027.0,020.3,15.7,0000.0,0000.53,0000.70,0000.49
2024-02-04 15:07:00,SystemResetWarning,0826.4,5.00,000.00,018.7,018.1,000.0,026.9,020.2,15.7,0000.0,0000.55,0000.72,0000.49
2024-02-04 15:08:00,SystemResetWarning,0826.5,5.01,000.00,018.6,018.1,000.0,026.9,020.2,15.6,0000.0,0000.55,0000.73,0000.50
2024-02-04 15:09:00,SystemResetWarning,0826.5,4.99,000.00,018.6,018.1,000.0,026.9,020.2,15.4,0000.0,0000.56,0001.76,0000.50
2024-02-04 15:10:00,SystemResetWarning,0826.6,4.99,000.00,018.6,018.0,000.0,026.9,020.2,15.2,0000.0,0000.58,0002.05,0000.50
2024-02-04 15:11:00,SystemResetWarning,0826.6,4.99,000.00,018.6,018.0,000.0,026.9,020.2,15.3,0000.0,0000.57,0002.04,0000.49
2024-02-04 15:12:00,SystemResetWarning,0826.6,5.00,000.00,018.5,018.0,000.0,026.9,020.1,15.5,0000.0,0000.58,0002.06,0000.49
2024-02-04 15:13:00,SystemResetWarning,0826.6,5.01,000.00,018.5,018.0,000.0,026.9,020.1,15.7,0000.0,0000.57,0002.05,0000.49
2024-02-04 15:14:00,SystemResetWarning,0826.6,4.99,000.00,018.5,018.0,000.0,026.9,020.1,15.8,0000.0,0000.59,0002.11,0000.50
2024-02-04 15:15:00,SystemResetWarning,0826.6,5.01,000.00,018.5,017.9,000.0,026.9,020.1,15.7,0000.0,0000.60,0002.16,0000.51
2024-02-04 15:16:00,SystemResetWarning,0826.6,5.01,000.00,018.5,017.9,000.0,026.8,020.0,15.6,0000.0,0000.62,0002.19,0000.52
2024-02-04 15:17:00,SystemResetWarning,0826.6,5.00,000.00,018.4,017.9,000.0,026.8,020.0,15.7,0000.0,0000.60,0002.23,0000.51
2024-02-04 15:18:00,SystemResetWarning,0826.7,5.00,000.00,018.4,017.9,000.0,026.8,020.0,15.8,0000.0,0000.59,0002.28,0000.51
2024-02-04 15:19:00,SystemResetWarning,0826.8,5.00,000.00,018.4,017.8,000.0,026.8,020.0,15.8,0000.0,0000.60,0002.29,0000.50
2024-02-04 15:20:00,SystemResetWarning,0826.8,5.01,000.00,018.4,017.8,000.0,026.8,020.0,15.8,0000.0,0000.60,0001.27,0000.51
2024-02-04 15:21:00,SystemResetWarning,0826.8,5.00,000.00,018.4,017.8,000.0,026.8,020.0,15.8,0000.0,0000.59,0000.99,0000.52
2024-02-04 15:22:00,SystemResetWarning,0826.7,4.99,000.00,018.4,017.8,000.0,026.8,020.0,15.8,0000.0,0000.60,0001.01,0000.53
2024-02-04 15:23:00,SystemResetWarning,0826.8,5.00,000.00,018.4,017.8,000.0,026.8,020.0,15.9,0000.0,0000.60,0001.02,0000.52
2024-02-04 15:24:00,SystemResetWarning,0826.8,5.00,000.00,018.3,017.8,000.0,026.8,020.0,15.9,0000.0,0000.61,0001.02,0000.52
2024-02-04 15:25:00,SystemResetWarning,0826.8,4.99,000.00,018.3,017.7,000.0,026.8,020.0,15.9,0000.0,0000.59,0000.96,0000.51
2024-02-04 15:26:00,SystemResetWarning,0826.8,5.00,000.00,018.3,017.7,000.0,026.8,020.0,16.0,0000.0,0000.57,0000.89,0000.50
2024-02-04 15:27:00,SystemResetWarning,0826.8,5.01,000.00,018.3,017.7,000.0,026.8,020.0,16.2,0000.0,0000.55,0000.86,0000.49
2024-02-04 15:28:00,SystemResetWarning,0826.9,5.00,000.00,018.3,017.7,000.0,026.8,020.0,16.2,0000.0,0000.55,0000.80,0000.48
2024-02-04 15:29:00,SystemResetWarning,0826.9,4.98,000.00,018.3,017.7,000.0,026.8,020.0,16.2,0000.0,0000.55,0000.73,0000.48
2024-02-04 15:30:00,SystemResetWarning,0826.9,5.00,000.00,018.3,017.7,000.0,026.8,020.0,16.2,0000.0,0000.54,0000.72,0000.48
2024-02-04 15:31:00,SystemResetWarning,0826.9,5.01,000.00,018.3,017.7,000.0,026.8,020.0,16.2,0000.0,0000.53,0000.69,0000.48
2024-02-04 15:32:00,SystemResetWarning,0827.0,4.99,000.00,018.3,017.7,000.0,026.8,020.0,16.4,0000.0,0000.52,0000.68,0000.47
2024-02-04 15:33:00,SystemResetWarning,0827.0,5.01,000.00,018.3,017.7,000.0,026.8,020.0,16.7,0000.0,0000.52,0000.67,0000.47
2024-02-04 15:34:00,SystemResetWarning,0826.9,5.00,000.00,018.3,017.7,000.0,026.8,020.0,16.8,0000.0,0000.51,0000.65,0000.48
2024-02-04 15:35:00,SystemResetWarning,0827.0,4.99,000.00,018.3,017.7,000.0,026.8,020.0,16.9,0000.0,0000.51,0000.64,0000.49
2024-02-04 15:36:00,SystemResetWarning,0827.0,5.00,000.00,018.3,017.7,000.0,026.8,020.0,16.8,0000.0,0000.54,0000.70,0000.49
2024-02-04 15:37:00,SystemResetWarning,0827.0,5.00,000.00,018.3,017.7,000.0,026.8,020.0,16.7,0000.0,0000.55,0000.73,0000.50
2024-02-04 15:38:00,SystemResetWarning,0827.1,5.00,000.00,018.3,017.7,000.0,026.8,020.0,16.6,0000.0,0000.57,0000.76,0000.52
2024-02-04 15:39:00,SystemResetWarning,0827.1,5.01,000.00,018.3,017.7,000.0,026.8,020.0,16.5,0000.0,0000.59,0000.76,0000.54
2024-02-04 15:40:00,SystemResetWarning,0827.2,5.01,000.00,018.3,017.7,000.0,026.9,020.0,16.5,0000.0,0000.60,0000.77,0000.55
2024-02-04 15:41:00,SystemResetWarning,0827.2,4.99,000.00,018.3,017.7,000.0,026.8,020.0,16.6,0000.0,0000.60,0000.77,0000.56
2024-02-04 15:42:00,SystemResetWarning,0827.1,5.00,000.00,018.3,017.7,000.0,026.8,020.0,16.6,0000.0,0000.61,0000.77,0000.56
2024-02-04 15:43:00,SystemResetWarning,0827.2,4.99,000.00,018.3,017.7,000.0,026.8,020.0,16.5,0000.0,0000.61,0000.78,0000.56
2024-02-04 15:44:00,SystemResetWarning,0827.1,4.99,000.00,018.3,017.7,000.0,026.8,020.0,16.2,0000.0,0000.62,0000.80,0000.57
2024-02-04 15:45:00,SystemResetWarning,0827.1,4.99,000.00,018.3,017.7,000.0,026.8,020.0,16.2,0000.0,0000.64,0000.89,0000.58
2024-02-04 15:46:00,SystemResetWarning,0827.1,5.00,000.00,018.3,017.8,000.0,026.8,020.0,16.3,0000.0,0000.64,0000.89,0000.58
2024-02-04 15:47:00,SystemResetWarning,0827.2,5.00,000.00,018.3,017.8,000.0,026.8,020.0,16.6,0000.0,0000.63,0000.86,0000.57
2024-02-04 15:48:00,SystemResetWarning,0827.2,5.01,000.00,018.3,017.8,000.0,026.8,020.0,16.8,0000.0,0000.61,0000.82,0000.57
2024-02-04 15:49:00,SystemResetWarning,0827.2,5.00,000.00,018.3,017.8,000.0,026.8,020.0,17.2,0000.0,0000.62,0000.83,0000.57
2024-02-04 15:50:00,SystemResetWarning,0827.2,5.00,000.00,018.3,017.8,000.0,026.8,020.0,17.7,0000.0,0000.60,0000.81,0000.56
2024-02-04 15:51:00,SystemResetWarning,0827.3,5.00,000.00,018.3,017.8,000.0,026.8,020.0,17.8,0000.0,0000.60,0000.81,0000.56
2024-02-04 15:52:00,SystemResetWarning,0827.2,5.00,000.00,018.3,017.8,000.0,026.8,020.0,17.7,0000.0,0000.62,0000.83,0000.58
2024-02-04 15:53:00,SystemResetWarning,0827.3,5.00,000.00,018.4,017.8,000.0,026.8,020.0,17.6,0000.0,0000.64,0000.85,0000.60
2024-02-04 15:54:00,SystemResetWarning,0827.3,5.00,000.00,018.4,017.8,000.0,026.8,020.0,17.7,0000.0,0000.66,0000.88,0000.61
2024-02-04 15:55:00,SystemResetWarning,0827.3,5.01,000.00,018.4,017.8,000.0,026.8,020.0,17.7,0000.0,0000.68,0000.94,0000.62
2024-02-04 15:56:00,SystemResetWarning,0827.3,5.00,000.00,018.4,017.8,000.0,026.8,020.0,17.7,0000.0,0000.68,0000.90,0000.62
2024-02-04 15:57:00,SystemResetWarning,0827.4,5.01,000.00,018.4,017.8,000.0,026.8,020.0,17.7,0000.0,0000.73,0000.97,0000.64
2024-02-04 15:58:00,SystemResetWarning,0827.4,5.01,000.00,018.4,017.9,000.0,026.8,020.0,17.5,0000.0,0000.75,0000.99,0000.65
2024-02-04 15:59:00,SystemResetWarning,0827.4,5.00,000.00,018.4,017.9,000.0,026.8,020.0,16.9,0000.0,0000.77,0001.03,0000.66
